Location: Caltech
(34.1382°N, 118.1253°W)
Time: 13:44:55
(UTC-08:00)

SO-50 - Visible Passes

Search period start: 06 December 2016 00:00
Search period end: 16 December 2016 00:00
Orbit: 611 x 677 km, 64.6° (Epoch: 06 December)

Date Brightness Start Highest point End Pass type
(mag) Time Alt. Az. Time Alt. Az. Time Alt. Az.
06 Dec ? 04:20:28 27° NE 04:21:02 27° NE 04:24:50 10° ESE visible
06 Dec ? 05:58:11 12° WNW 06:01:21 25° WSW 06:04:59 10° SSW visible
06 Dec ? 18:28:04 10° SSE 18:29:17 15° SSE 18:29:17 15° SSE visible
07 Dec ? 04:46:00 63° N 04:46:33 73° ENE 04:50:58 10° SE visible
07 Dec ? 18:52:09 10° SSW 18:54:58 34° S 18:54:58 34° S visible
08 Dec ? 03:33:53 12° E 03:33:53 12° E 03:34:26 10° E visible
08 Dec ? 05:11:35 38° WSW 05:11:49 39° WSW 05:15:56 10° S visible
08 Dec ? 17:39:42 10° SE 17:42:12 14° ESE 17:42:55 14° E visible
08 Dec ? 19:17:32 10° SW 19:20:37 36° WSW 19:20:37 36° WSW visible
09 Dec ? 03:59:31 21° ESE 03:59:31 21° ESE 04:01:09 10° SE visible
09 Dec ? 05:37:14 14° WSW 05:37:14 14° WSW 05:39:10 10° SW visible
09 Dec ? 18:02:52 10° S 18:07:16 37° ESE 18:08:30 32° E visible
09 Dec ? 19:44:05 10° WSW 19:46:12 19° W 19:46:12 19° W visible
10 Dec ? 04:25:12 20° SSE 04:25:12 20° SSE 04:26:37 10° SSE visible
10 Dec ? 18:27:45 10° SSW 18:32:32 81° WNW 18:34:00 44° NNE visible
11 Dec ? 17:13:51 10° SSE 17:17:43 25° ESE 17:21:34 10° ENE visible
11 Dec ? 18:53:46 10° WSW 18:58:02 31° NW 18:59:25 27° NNW visible
12 Dec ? 17:38:10 10° SSW 17:42:54 67° ESE 17:47:04 13° NE visible
12 Dec ? 19:21:17 10° W 19:23:47 14° NW 19:24:45 13° NW visible
13 Dec ? 18:03:42 10° SW 18:08:17 46° WNW 18:12:19 13° NNE visible
14 Dec ? 18:30:27 10° W 18:33:56 20° NW 18:37:23 10° N visible
15 Dec ? 17:13:51 10° SW 17:18:36 70° WNW 17:23:20 10° NNE visible
